| time (UTC) | temp F | wind direction | speed knots | gust knots | rain 1hr in | rain 24hr in | rain mn in | humidity % | barometer mb |
| 20260510174306 | 55 | 26 | 2.6 | 5.2 | 0.00 | 0.00 | 0.00 | 61 | 1014.8 |
| 20260510172806 | 55 | 339 | 1.7 | 6.1 | 0.00 | 0.00 | 0.00 | 60 | 1014.9 |
| 20260510171306 | 55 | 31 | 4.3 | 7.8 | 0.00 | 0.00 | 0.00 | 59 | 1015.1 |
| 20260510165806 | 56 | 34 | 2.6 | 13.0 | 0.00 | 0.00 | 0.00 | 61 | 1015.1 |
| 20260510164306 | 55 | 54 | 2.6 | 8.7 | 0.00 | 0.00 | 0.00 | 61 | 1015.4 |
| 20260510162806 | 55 | 38 | 2.6 | 9.6 | 0.00 | 0.00 | 0.00 | 62 | 1015.6 |
| 20260510161306 | 56 | 234 | 3.5 | 9.6 | 0.00 | 0.00 | 0.00 | 62 | 1015.7 |
| 20260510155806 | 56 | 9 | 3.5 | 5.2 | 0.00 | 0.00 | 0.00 | 63 | 1015.7 |
| 20260510154306 | 55 | 10 | 3.5 | 10.4 | 0.00 | 0.00 | 0.00 | 62 | 1015.8 |
| 20260510152806 | 55 | 49 | 2.6 | 7.8 | 0.00 | 0.00 | 0.00 | 65 | 1016.0 |
| 20260510151306 | 55 | 355 | 3.5 | 7.8 | 0.00 | 0.00 | 0.00 | 65 | 1016.1 |
| 20260510145806 | 55 | 0 | 3.5 | 8.7 | 0.00 | 0.00 | 0.00 | 65 | 1016.4 |
| 20260510144306 | 55 | 162 | 3.5 | 7.0 | 0.00 | 0.00 | 0.00 | 67 | 1016.6 |
| 20260510142806 | 55 | 0 | 2.6 | 7.0 | 0.00 | 0.00 | 0.00 | 67 | 1016.8 |
| 20260510141306 | 54 | 15 | 3.5 | 7.0 | 0.00 | 0.00 | 0.00 | 68 | 1017.0 |
| 20260510135806 | 54 | 42 | 4.3 | 7.8 | 0.00 | 0.00 | 0.00 | 70 | 1017.0 |
| 20260510134306 | 53 | 24 | 3.5 | 7.8 | 0.00 | 0.00 | 0.00 | 69 | 1017.1 |
| 20260510132806 | 53 | 39 | 3.5 | 9.6 | 0.00 | 0.00 | 0.00 | 70 | 1017.2 |
| 20260510131306 | 53 | 13 | 3.5 | 8.7 | 0.00 | 0.00 | 0.00 | 72 | 1017.2 |
| 20260510131053 | 53 | 315 | 4.3 | 10.4 | 0.00 | 0.00 | 0.00 | 72 | 1017.3 |
| 20260510125806 | 53 | 315 | 4.3 | 10.4 | 0.00 | 0.00 | 0.00 | 72 | 1017.3 |
| 20260510124306 | 53 | 54 | 4.3 | 9.6 | 0.00 | 0.00 | 0.00 | 73 | 1017.4 |
| 20260510122806 | 53 | 19 | 3.5 | 9.6 | 0.00 | 0.00 | 0.00 | 73 | 1017.4 |
| 20260510121306 | 53 | 107 | 3.5 | 10.4 | 0.00 | 0.00 | 0.00 | 73 | 1017.5 |
| 20260510115806 | 53 | 21 | 3.5 | 9.6 | 0.00 | 0.00 | 0.00 | 73 | 1017.6 |
| 20260510114306 | 53 | 5 | 3.5 | 8.7 | 0.00 | 0.00 | 0.00 | 75 | 1017.7 |
| 20260510112806 | 53 | 16 | 3.5 | 12.2 | 0.00 | 0.00 | 0.00 | 74 | 1018.0 |
| 20260510111734 | 52 | 27 | 4.3 | 9.6 | 0.00 | 0.00 | 0.00 | 76 | 1018.2 |
| 20260510111727 | 52 | 0 | 3.5 | 7.8 | 0.00 | 0.00 | 0.00 | 77 | 1018.2 |
| 20260510111307 | 52 | 27 | 4.3 | 9.6 | 0.00 | 0.00 | 0.00 | 76 | 1018.2 |
| 20260510105807 | 52 | 0 | 3.5 | 7.8 | 0.00 | 0.00 | 0.00 | 77 | 1018.2 |
| 20260510104307 | 51 | 330 | 4.3 | 9.6 | 0.00 | 0.00 | 0.00 | 79 | 1018.3 |
| 20260510102807 | 50 | 65 | 4.3 | 12.2 | 0.00 | 0.00 | 0.00 | 79 | 1018.7 |
| 20260510101818 | 50 | 89 | 2.6 | 7.0 | 0.00 | 0.00 | 0.00 | 81 | 1018.7 |
| 20260510101307 | 50 | 89 | 2.6 | 7.0 | 0.00 | 0.00 | 0.00 | 81 | 1018.7 |
| 20260510095807 | 50 | 22 | 5.2 | 14.8 | 0.00 | 0.00 | 0.00 | 80 | 1018.6 |
| 20260510094307 | 51 | 348 | 3.5 | 9.6 | 0.00 | 0.00 | 0.00 | 80 | 1018.7 |
| 20260510092807 | 50 | 37 | 3.5 | 8.7 | 0.00 | 0.00 | 0.00 | 80 | 1018.7 |
| 20260510092205 | 50 | 0 | 3.5 | 11.3 | 0.00 | 0.00 | 0.00 | 80 | 1018.7 |
| 20260510091307 | 50 | 0 | 3.5 | 11.3 | 0.00 | 0.00 | 0.00 | 80 | 1018.7 |
| 20260510085807 | 50 | 25 | 4.3 | 10.4 | 0.00 | 0.00 | 0.00 | 80 | 1018.8 |
| 20260510084823 | 51 | 355 | 2.6 | 8.7 | 0.00 | 0.00 | 0.00 | 79 | 1018.8 |
| 20260510084307 | 51 | 355 | 2.6 | 8.7 | 0.00 | 0.00 | 0.00 | 79 | 1018.8 |
| 20260510082807 | 51 | 26 | 4.3 | 13.0 | 0.00 | 0.00 | 0.00 | 78 | 1018.8 |
| 20260510081307 | 51 | 55 | 3.5 | 10.4 | 0.00 | 0.00 | 0.00 | 79 | 1018.6 |
| 20260510075807 | 51 | 39 | 4.3 | 11.3 | 0.00 | 0.00 | 0.00 | 78 | 1018.6 |
| 20260510074307 | 51 | 34 | 4.3 | 11.3 | 0.00 | 0.00 | 0.00 | 78 | 1018.5 |
| 20260510072807 | 51 | 26 | 4.3 | 9.6 | 0.00 | 0.00 | 0.00 | 78 | 1018.6 |
| 20260510071307 | 50 | 340 | 4.3 | 9.6 | 0.00 | 0.00 | 0.00 | 78 | 1018.6 |
| 20260510065807 | 50 | 5 | 4.3 | 13.9 | 0.00 | 0.00 | 0.00 | 78 | 1018.6 |
| 20260510064307 | 50 | 26 | 3.5 | 11.3 | 0.00 | 0.00 | 0.00 | 81 | 1018.4 |
| 20260510062807 | 49 | 41 | 4.3 | 14.8 | 0.00 | 0.00 | 0.00 | 82 | 1018.3 |
| 20260510061307 | 48 | 340 | 2.6 | 11.3 | 0.00 | 0.00 | 0.00 | 84 | 1018.4 |
| 20260510055807 | 48 | 32 | 1.7 | 5.2 | 0.00 | 0.00 | 0.00 | 84 | 1018.3 |
| 20260510054307 | 47 | 33 | 2.6 | 5.2 | 0.00 | 0.00 | 0.00 | 84 | 1018.2 |
| 20260510052807 | 47 | 76 | 2.6 | 7.0 | 0.00 | 0.00 | 0.00 | 84 | 1018.2 |
| 20260510051307 | 47 | 38 | 2.6 | 7.0 | 0.00 | 0.00 | 0.00 | 84 | 1018.3 |
| 20260510045807 | 47 | 67 | 2.6 | 7.0 | 0.00 | 0.00 | 0.00 | 84 | 1018.3 |
| 20260510044307 | 47 | 93 | 3.5 | 11.3 | 0.00 | 0.00 | 0.00 | 84 | 1018.4 |
| 20260510042807 | 47 | 34 | 3.5 | 11.3 | 0.00 | 0.00 | 0.00 | 84 | 1018.5 |
| 20260510041307 | 47 | 28 | 2.6 | 7.8 | 0.00 | 0.00 | 0.00 | 85 | 1018.6 |
| 20260510035807 | 47 | 36 | 1.7 | 7.0 | 0.00 | 0.00 | 0.00 | 85 | 1018.7 |
| 20260510034307 | 47 | 19 | 2.6 | 8.7 | 0.00 | 0.00 | 0.00 | 85 | 1018.7 |
| 20260510032807 | 47 | 28 | 2.6 | 7.8 | 0.00 | 0.00 | 0.00 | 85 | 1018.7 |
| 20260510031307 | 47 | 355 | 2.6 | 7.0 | 0.00 | 0.00 | 0.00 | 84 | 1018.7 |
| 20260510025807 | 47 | 347 | 2.6 | 9.6 | 0.00 | 0.00 | 0.00 | 84 | 1018.7 |
| 20260510024307 | 48 | 32 | 2.6 | 7.8 | 0.00 | 0.00 | 0.00 | 83 | 1018.8 |
| 20260510022807 | 48 | 335 | 3.5 | 11.3 | 0.00 | 0.00 | 0.00 | 82 | 1018.8 |
| 20260510021307 | 48 | 30 | 3.5 | 9.6 | 0.00 | 0.00 | 0.00 | 82 | 1018.9 |
| 20260510015807 | 49 | 21 | 2.6 | 8.7 | 0.00 | 0.00 | 0.00 | 81 | 1019.0 |
| 20260510014307 | 49 | 355 | 2.6 | 8.7 | 0.00 | 0.00 | 0.00 | 81 | 1018.8 |
| 20260510012807 | 49 | 26 | 2.6 | 7.8 | 0.00 | 0.00 | 0.00 | 81 | 1018.9 |
| 20260510011307 | 50 | 21 | 3.5 | 6.1 | 0.00 | 0.00 | 0.00 | 79 | 1018.9 |
| 20260510005807 | 50 | 0 | 2.6 | 8.7 | 0.00 | 0.00 | 0.00 | 77 | 1018.9 |
| 20260510004307 | 51 | 5 | 2.6 | 7.0 | 0.00 | 0.00 | 0.00 | 77 | 1018.9 |
| 20260510002809 | 51 | 355 | 2.6 | 7.8 | 0.00 | 0.00 | 0.00 | 75 | 1018.8 |
| 20260510001307 | 51 | 24 | 2.6 | 5.2 | 0.00 | 0.00 | 0.00 | 74 | 1018.7 |
| 20260509235807 | 52 | 0 | 3.5 | 7.8 | 0.00 | 0.00 | 0.00 | 73 | 1018.5 |
| 20260509234307 | 52 | 15 | 3.5 | 10.4 | 0.00 | 0.00 | 0.00 | 72 | 1018.4 |
| 20260509232807 | 53 | 5 | 3.5 | 7.0 | 0.00 | 0.00 | 0.00 | 71 | 1018.5 |
| 20260509231307 | 53 | 28 | 3.5 | 8.7 | 0.00 | 0.00 | 0.00 | 72 | 1018.5 |
| 20260509225807 | 53 | 322 | 3.5 | 12.2 | 0.00 | 0.00 | 0.00 | 73 | 1018.3 |
| 20260509224307 | 54 | 30 | 2.6 | 8.7 | 0.00 | 0.00 | 0.00 | 79 | 1018.3 |
| 20260509222807 | 54 | 17 | 1.7 | 7.0 | 0.00 | 0.00 | 0.00 | 82 | 1018.3 |
| 20260509221307 | 55 | 23 | 1.7 | 4.3 | 0.00 | 0.00 | 0.00 | 81 | 1018.3 |
| 20260509215807 | 56 | 17 | 0.9 | 6.1 | 0.00 | 0.00 | 0.00 | 80 | 1018.2 |
| 20260509214307 | 56 | 23 | 1.7 | 4.3 | 0.00 | 0.00 | 0.00 | 79 | 1018.1 |
| 20260509212808 | 57 | 39 | 1.7 | 8.7 | 0.00 | 0.00 | 0.00 | 79 | 1018.1 |
| 20260509211308 | 57 | 13 | 2.6 | 8.7 | 0.00 | 0.00 | 0.00 | 78 | 1017.8 |
| 20260509205808 | 57 | 26 | 1.7 | 7.8 | 0.00 | 0.00 | 0.00 | 79 | 1017.6 |
| 20260509204308 | 58 | 12 | 1.7 | 6.1 | 0.00 | 0.00 | 0.00 | 78 | 1017.4 |
| 20260509202808 | 58 | 46 | 0.9 | 7.8 | 0.00 | 0.00 | 0.00 | 75 | 1017.2 |
| 20260509201308 | 59 | 34 | 1.7 | 6.1 | 0.00 | 0.00 | 0.00 | 68 | 1017.1 |
| 20260509195808 | 60 | 25 | 0.0 | 1.7 | 0.00 | 0.00 | 0.00 | 60 | 1017.0 |
| 20260509194308 | 60 | 19 | 0.0 | 1.7 | 0.00 | 0.00 | 0.00 | 58 | 1016.8 |
| 20260509192808 | 62 | 15 | 0.9 | 3.5 | 0.00 | 0.00 | 0.00 | 57 | 1016.8 |
| 20260509191308 | 62 | 5 | 0.9 | 3.5 | 0.00 | 0.00 | 0.00 | 56 | 1017.0 |
| 20260509185808 | 63 | 32 | 1.7 | 4.3 | 0.00 | 0.00 | 0.00 | 54 | 1016.8 |
| 20260509184308 | 64 | 33 | 1.7 | 3.5 | 0.00 | 0.00 | 0.00 | 53 | 1016.6 |
| 20260509182808 | 65 | 310 | 2.6 | 6.1 | 0.00 | 0.00 | 0.00 | 53 | 1016.6 |
| 20260509181308 | 66 | 39 | 1.7 | 6.1 | 0.00 | 0.00 | 0.00 | 52 | 1016.4 |
| 20260509175808 | 66 | 41 | 2.6 | 7.0 | 0.00 | 0.00 | 0.00 | 52 | 1016.2 |